STARLINK-11492, 62224

Orbit data source: Space-Track

STARLINK-11492, 62224 is a payload satellite owned by SpaceX/Seattle (US) in LEO that was launched on Thu, 05 Dec 2024 UTC via an FALCON 9 launch vehicle from the Air Force Western Test Range (AFWTR). Payload-class satellites include a variety of spacecraft equipped with specific instruments for various scientific and technological missions. These include communications satellites like Starlink; space stations such as the ISS; scientific satellites like the Hubble; Earth observation satellites from companies like Planet Labs, Umbra, and HawkEye 360; GPS; miniature CubeSats for education and research; and military/defense satellites.

Loading next visibility...
Identifier
62224, 2024-231G
Orbit
LEO
Country
Flag of USUS
Related business
Manufacturer
SpaceX/Seattle
Mission
Operational Commercial Communications
Bus & Motor
STARLINK V2MD, Unknown motor
Mass
960 kg wet, ~910 kg dry
Launch date (UTC)
2024-12-05 (2 years ago)
Launch vehicle
FALCON 9
Launch site
Air Force Western Test Range (AFWTR)
Object type
Payload
Rocket body
Debris
Shape & HBR
Box + 2 Pan, 18.1 m
Radar Cross Section
36.964 m², Large (>1 m²)

Expand to show TLE details & history
Last TLE update: 15 hours ago

TLE from 15 hours ago
0 STARLINK-11492
1 62224U 24231G   26256.54848399  .00124302  00000-0  10141-2 0  9990
2 62224  53.1577 255.4356 0001056  93.7717 266.3421 15.69744980102912
Epoch: 2026-09-13T13:09Z
TLE epoch observation values (Epoch: 2026-09-13T13:09:49.016Z)
Latitude
-0.00009°
Longitude
65.43975°
Altitude
360.587 km
Speed
7.694 km/s
True Right ascension
17h 01m 44s
True Declination
0° 00' 00"
Sunlit
Object was in daylight at epoch
Visualization orbit readout
Latitude
Unknown
Longitude
Unknown
Altitude
Unknown
Speed
Unknown
Apparent Right ascension
Unknown
Apparent Declination
Unknown
Sunlit
N/A
Visualization observer readout
Local Sidereal Time
21:03:59
Azimuth
Unknown
Elevation
Unknown
Doppler factor
Unknown
Orbital elements
Apogee altitude
360.599 km
Perigee altitude
359.176 km
Semi-major axis
6,738.025 km
Eccentricity
0.00011
Inclination
53.1577°
RAAN
255.4356°
Arg. of periapsis
93.7717°
True anomaly
266.33002°
Mean anomaly
266.3421°
Eccentric anomaly
266.33606°
Mean motion
3.92414 °/min
Orbital period
91.74 mins
BSTAR
0.0010141
Loading maneuver chart data...
Computing Atmospheric mass density...
Loading historical data...
Loading historical data...
Loading historical data...
Loading historical data...
Loading historical data...
Loading historical data...
Loading historical data...

Documentation

Showing up to 5 results
|